Regional Weather Roundup
Issued by NWS

Home | Current Version | Previous Version | Text Only | Print | Product List | Glossary On
Versions: 1 2 3 4 5 6 7 8 9 10 11 12 13 14 15 16 17 18 19 20 21 22 23 24 25 26 27 28 29 30 31 32 33 34 35 36 37 38 39 40 41 42 43 44 45 46 47 48 49 50
000
ASUS45 KPSR 161710
RWRAZ

ARIZONA HOURLY REGIONAL WEATHER ROUNDUP
NATIONAL WEATHER SERVICE PHOENIX AZ
1000 AM MST WED AUG 16 2017

NOTE: FAIR INDICATES FEW OR NO CLOUDS BELOW 12,000 FEET WITH NO
SIGNIFICANT WEATHER AND/OR OBSTRUCTIONS TO VISIBILITY.

AZZ001>003-036-161800-
NORTHWEST ARIZONA

CITY           SKY/WX    TMP DP  RH WIND       PRES   REMARKS
BULLHEAD CITY  SUNNY     90  34  13 SW7       29.86R
KINGMAN        SUNNY     85  39  19 SE22      30.02R
$$

AZZ004>008-015-016-018-161800-
NORTH CENTRAL ARIZONA

CITY           SKY/WX    TMP DP  RH WIND       PRES   REMARKS
GRAND CANYON   MOSUNNY   72  29  20 S6        30.26R
WILLIAMS       CLOUDY    70  30  23 SE8G16    30.26S
PRESCOTT       SUNNY     76  35  22 SE15      30.16R
FLAGSTAFF      PTSUNNY   67  30  25 SW9       30.29R
PAYSON           N/A     75  32  20 VRB7      30.20S
PAGE           SUNNY     79  32  18 VRB5      30.09S
$$

AZZ009>014-017-161800-
NORTHEAST ARIZONA

CITY           SKY/WX    TMP DP  RH WIND       PRES   REMARKS
WINSLOW        SUNNY     80  36  20 SW9G18    30.16S
SAINT JOHNS    SUNNY     78  22  12 NW8       30.21S
WINDOW ROCK    SUNNY     75  25  15 VRB7      30.26S
SHOW LOW       SUNNY     68  36  30 S8        30.28R
$$

AZZ540-542>544-546-548-161800-
GREATER PHOENIX AREA

CITY           SKY/WX    TMP DP  RH WIND       PRES   REMARKS
PHOENIX        SUNNY     91  49  23 SE7       29.90S
BUCKEYE        SUNNY     90  45  20 SE10      29.90S
GLENDALE       SUNNY     90  48  24 CALM      29.92S
LUKE AFB       SUNNY     89  49  25 E5        29.90S
DEER VALLEY    SUNNY     91  43  18 SE9       29.93R
SCOTTSDALE     SUNNY     91  41  17 VRB7      29.95R
MESA-FALCON    SUNNY     93  46  20 S12       29.93
MESA-GATEWAY   SUNNY     90  48  24 S7        29.94S
CHANDLER       SUNNY     90  46  22 SE12      29.92S
$$

AZZ539-553-161800-
SOUTHWEST MARICOPA COUNTY AND PINAL COUNTY

CITY           SKY/WX    TMP DP  RH WIND       PRES   REMARKS
CASA GRANDE    SUNNY     90  49  24 SE6       29.95S
GILA BEND      SUNNY     92  47  21 CALM      29.87S
$$

AZZ503-504-507>509-161800-
SOUTHEAST ARIZONA

CITY           SKY/WX    TMP DP  RH WIND       PRES   REMARKS
TUCSON         NOT AVBL
DAVIS-MONTHAN  SUNNY     88  46  22 S6        30.04R
RYAN FIELD     SUNNY     88  46  23 E9        30.02S
NOGALES        SUNNY     83  51  33 S7        30.12S
SIERRA VISTA   SUNNY     78  46  32 SW3       30.19R
DOUGLAS        SUNNY     77  49  37 CALM      30.15S
SAFFORD        SUNNY     84  48  28 VRB6      30.06R
$$

AZZ532-161800-
SOUTHWEST ARIZONA

CITY           SKY/WX    TMP DP  RH WIND       PRES   REMARKS
YUMA           NOT AVBL
$$

CAZ041-043-047-048-061-525>527-560>570-161800-
SOUTHERN CALIFORNIA

CITY           SKY/WX    TMP DP  RH WIND       PRES   REMARKS
DOWNTOWN L.A.  CLOUDY    75  58  55 CALM      29.98S
L.A. AIRPORT   CLOUDY    72  57  59 CALM      29.98S
SAN DIEGO      MOSUNNY   71  56  58 S6        30.01S
BURBANK        PTSUNNY   69  54  58 S8        29.99S
ONTARIO        PTSUNNY   68  58  70 VRB5      30.00S
RIVERSIDE      SUNNY     70  56  61 CALM      30.00R
PALM SPRINGS   SUNNY     86  47  25 CALM      29.87R
EL CENTRO NAS  SUNNY     91  20   7 SW8       29.84R
IMPERIAL       SUNNY     90  34  13 S5        29.83R
BLYTHE         SUNNY     87  36  16 VRB5      29.85R
NEEDLES        SUNNY     93  25   8 SE9       29.87R
$$

NVZ020-UTZ003-161800-
SOUTHERN NEVADA-UTAH

CITY           SKY/WX    TMP DP  RH WIND       PRES   REMARKS
LAS VEGAS      SUNNY     87  40  19 VRB6      29.94R
SALT LAKE CITY PTSUNNY   77  42  28 E5        30.08S
$$

NMZ009-TXZ055-161800-
NEW MEXICO-WEST TEXAS

CITY           SKY/WX    TMP DP  RH WIND       PRES   REMARKS
ALBUQUERQUE    MOSUNNY   76  39  26 SW8       30.18F
EL PASO        MOSUNNY   86  53  32 CALM      30.09R
$$


........................KEY........................
SKY/WX - SKY CONDITION/WEATHER
TMP    - TEMPERATURE IN FAHRENHEIT
DP     - DEW POINT IN FAHRENHEIT
RH     - RELATIVE HUMIDITY IN PERCENT
WIND   - DIRECTION AND SPEED IN MILES PER HOUR (MPH)
VRB    - VARIABLE WIND DIRECTION
PRES   - MEAN SEA LEVEL PRESSURE IN INCHES OF MERCURY
         F - FALLING PRESSURE   R - RISING PRESSURE
         S - STEADY PRESSURE
VSB    - VISIBILITY IN MILES
HX     - HEAT INDEX IN FAHRENHEIT
WCI    - WIND CHILL INDEX IN FAHRENHEIT
TC     - TEMPERATURE IN CELSIUS WHICH IS ALSO KNOWN AS
         TEMPERATURE IN CENTIGRADE
AFB    - AIR FORCE BASE
         LUKE AFB IS LUKE AIR FORCE BASE
         DAVIS-MONTHAN IS DAVIS-MONTHAN AIR FORCE BASE
NAS    - NAVAL AIR STATION
         EL CENTRO NAS IS EL CENTRO NAVAL AIR STATION
N/A    - NOT AVAILABLE




USA.gov is the U.S. government's official web portal to all federal, state and local government web resources and services.